Location: Newark
(48.0000°N, 67.0000°E)
Time: 19:19:43
(UTC+00:00)

Transit 2A Rocket - All Passes

Search period start: 21 February 2020 00:00
Search period end: 02 March 2020 00:00
Orbit: 591 x 912 km, 66.7° (Epoch: 21 February)

Date Brightness Start Highest point End Pass type
(mag) Time Alt. Az. Time Alt. Az. Time Alt. Az.
21 Feb - 00:37:04 10° N 00:40:10 16° NNE 00:43:25 10° ENE visible
21 Feb - 02:18:42 10° NNW 02:23:42 59° NE 02:29:10 10° SE daylight
21 Feb - 04:01:47 10° WNW 04:06:02 26° WSW 04:10:34 10° SSW daylight
21 Feb - 16:59:30 10° SE 17:02:00 15° ESE 17:04:33 10° ENE night (unlit)
21 Feb - 18:39:37 10° SW 18:43:55 69° NW 18:48:27 10° NNE night (unlit)
21 Feb - 20:24:41 10° WNW 20:27:24 16° NNW 20:30:12 10° N night (unlit)
21 Feb - 23:55:00 10° N 23:57:07 12° NNE 23:59:17 10° NE visible
22 Feb - 01:36:18 10° NNW 01:41:01 39° NE 01:46:09 10° ESE visible
22 Feb - 03:18:49 10° NW 03:23:39 41° WSW 03:28:54 10° S daylight
22 Feb - 17:57:07 10° SSW 18:01:22 70° ESE 18:05:52 10° NE night (unlit)
22 Feb - 19:41:02 10° W 19:44:26 21° NW 19:48:01 10° NNE night (unlit)
23 Feb - 00:53:57 10° NNW 00:58:14 27° NE 01:02:50 10° E visible
23 Feb - 02:36:06 10° NW 02:41:12 67° WSW 02:46:46 10° SSE daylight
23 Feb - 04:21:35 10° W 04:22:59 11° WSW 04:24:26 10° WSW daylight
23 Feb - 17:14:58 10° S 17:18:57 39° ESE 17:23:08 10° NE night (unlit)
23 Feb - 18:57:41 10° WSW 19:01:35 31° NW 19:05:42 10° NNE night (unlit)
23 Feb - 20:45:00 10° NNW 20:45:44 10° NNW 20:46:29 10° N visible
24 Feb - 00:11:41 10° NNW 00:15:21 20° NE 00:19:13 10° E visible
24 Feb - 01:53:32 10° NNW 01:58:40 79° NE 02:04:16 10° SE visible
24 Feb - 03:37:08 10° WNW 03:40:47 19° WSW 03:44:36 10° SSW daylight
24 Feb - 16:33:19 10° SSE 16:36:40 22° ESE 16:40:07 10° ENE night (unlit)
24 Feb - 18:14:38 10° SW 18:18:51 49° NW 18:23:19 10° NNE night (unlit)
24 Feb - 20:00:26 10° NW 20:02:37 13° NNW 20:04:50 10° N night (unlit)
24 Feb - 23:29:30 10° N 23:32:21 15° NNE 23:35:19 10° ENE visible
25 Feb - 01:11:04 10° NNW 01:16:02 51° NE 01:21:27 10° SE visible
25 Feb - 02:53:56 10° NW 02:58:28 31° WSW 03:03:20 10° S daylight
25 Feb - 15:52:39 10° SE 15:54:28 12° ESE 15:56:19 10° E night (unlit)
25 Feb - 17:31:55 10° SW 17:36:13 83° WNW 17:40:49 10° NNE night (unlit)
25 Feb - 19:16:33 10° WNW 19:19:35 18° NNW 19:22:43 10° N night (unlit)
25 Feb - 22:47:30 10° N 22:49:16 12° NNE 22:51:05 10° NE visible
26 Feb - 00:28:41 10° NNW 00:33:19 35° NE 00:38:19 10° ESE visible
26 Feb - 02:11:04 10° NW 02:16:04 49° WSW 02:21:29 10° S daylight
26 Feb - 16:49:31 10° SSW 16:53:44 57° ESE 16:58:12 10° NE night (unlit)
26 Feb - 18:33:02 10° W 18:36:39 24° NW 18:40:28 10° NNE night (unlit)
26 Feb - 23:46:22 10° NNW 23:50:29 25° NE 23:54:54 10° E visible
27 Feb - 01:28:24 10° NW 01:33:34 78° WSW 01:39:13 10° SSE visible
27 Feb - 03:12:54 10° WNW 03:15:29 14° WSW 03:18:09 10° SW daylight
27 Feb - 16:07:32 10° S 16:11:22 32° ESE 16:15:22 10° NE night (unlit)
27 Feb - 17:49:47 10° WSW 17:53:50 36° NW 17:58:08 10° NNE night (unlit)
27 Feb - 19:36:23 10° NW 19:37:52 11° NNW 19:39:22 10° N night (unlit)
27 Feb - 23:04:06 10° NNW 23:07:33 18° NNE 23:11:12 10° ENE visible
28 Feb - 00:45:52 10° NNW 00:51:00 68° NE 00:56:36 10° SE visible
28 Feb - 02:29:10 10° WNW 02:33:14 23° WSW 02:37:32 10° SSW daylight
28 Feb - 15:26:07 10° SSE 15:29:06 18° ESE 15:32:11 10° ENE night (unlit)
28 Feb - 17:06:52 10° SW 17:11:08 59° NW 17:15:42 10° NNE night (unlit)
28 Feb - 18:52:13 10° WNW 18:54:46 15° NNW 18:57:24 10° N night (unlit)
28 Feb - 22:21:57 10° N 22:24:31 14° NNE 22:27:13 10° ENE visible
29 Feb - 00:03:26 10° NNW 00:08:21 45° NE 00:13:40 10° ESE visible
29 Feb - 01:46:06 10° NW 01:50:53 36° WSW 01:56:02 10° S daylight
29 Feb - 16:24:14 10° SSW 16:28:34 83° ESE 16:33:10 10° NE night (unlit)
29 Feb - 18:08:29 10° W 18:11:46 20° NW 18:15:13 10° NNE night (unlit)
29 Feb - 21:40:01 10° N 21:41:24 11° NNE 21:42:49 10° NE visible
29 Feb - 23:21:04 10° NNW 23:25:35 31° NE 23:30:27 10° ESE visible
01 Mar - 01:03:19 10° NW 01:08:27 58° WSW 01:14:02 10° SSE visible
01 Mar - 15:41:59 10° S 15:46:07 46° ESE 15:50:29 10° NE visible
01 Mar - 17:25:03 10° W 17:28:52 28° NW 17:32:56 10° NNE night (unlit)
01 Mar - 22:38:45 10° NNW 22:42:44 22° NE 22:46:56 10° E visible
